Starlink 4049

operational
NORAD ID: 52840 Int'l Des: 2022-062 Owner: SPXS Country: US Constellation: starlink
LEOCIRCULAR

Starlink 4049について

説明を読み込み中...

リアルタイム位置

3D地球を読み込み中...

次回通過

高度履歴

Altitude vs Time

uPlot chart will show altitude changes over time

軌道要素

1 52840U 22062L 25352.27851423 -.00000173 00000-0 72535-5 0 9999
2 52840 53.2177 39.7076 0001471 81.7513 278.3646 15.08843564193492
Epoch: Dec 18, 2025 • Age: 7 hours

現在のステータス

高度 541.2 km
速度 7.60 km/s
衛星直下点 32.10°N, 101.64°W
打ち上げ日 Jun 17, 2022
運用期間 3.5 years
タイプ internet

技術仕様

分類 Payload
質量 297.00 kg
乾燥質量 275.00 kg
総質量 297.00 kg
長さ 0.20 m
直径 2.80 m
スパン 9.00 m
形状 Box + pan
製造者 SPXS
バスタイプ Starlink
フェーズステータス In Orbit
所有者/国 SPXS/US

大規模コンステレーション

Loading constellations...